Weather History for Massena, NY

Change the Weather History Date:

Tuesday, November 9, 2010

  Actual Average Record
Temperature  
Mean Temperature 40 °F 38 °F  
Max Temperature 46 °F 47 °F 70 °F (2009)
Min Temperature 35 °F 30 °F 9 °F (1971)
Degree Days  
Heating Degree Days 24 27  
Month to date heating degree days 231  
Since 1 July heating degree days 1112  
Moisture  
Dew Point 39 °F    
Average Humidity 88    
Maximum Humidity 100    
Minimum Humidity 76    
Precipitation  
Precipitation 0.00 in 0.10 in 0.94 in (1966)
Month to date precipitation 0.97  
Year to date precipitation 30.47  
Sea Level Pressure  
Sea Level Pressure 30.09 in    
Wind  
Wind Speed 4 mph (NNW)    
Max Wind Speed 7 mph    
Max Gust Speed -    
Visibility 10 miles    
Events Rain    
T = Trace of Precipitation, MM = Missing Value Source: NWS Daily Summary

Daily Weather History Graph

Daily Weather History Graph

Search for Another Location

Airport:

Trip Planner

Search our weather history database for the weather conditions in past years. The results will help you decide how hot, cold, wet, or windy it might be!

Date:

Astronomy

Nov. 09, 2010 Rise Set
Actual Time 6:48 AM EST 4:37 PM EST
Civil Twilight 6:17 AM EST 5:08 PM EST
Nautical Twilight 5:42 AM EST 5:43 PM EST
Astronomical Twilight 5:07 AM EST 6:17 PM EST
Moon 10:33 AM EST (11/9) 7:26 PM EST (11/9)
Length of Visible Light 10h 51m
Length of Day
9h 48m
Waxing Crescent, 14% of the Moon is Illuminated
Nov 9
Waxing Crescent
Nov 13
First Quarter
Nov 21
Full
Nov 28
Last Quarter
Dec 5
New

Hourly Weather History & Observations

Time (EST) Temp. Windchill Dew Point Humidity Pressure Visibility Wind Dir Wind Speed Gust Speed Precip Events Conditions
12:53 AM 39.9 °F 35.8 °F 36.0 °F 86% 29.97 in 10.0 mi North 5.8 mph - 0.00 in Rain Light Rain
1:04 AM 39.2 °F 35.9 °F 35.6 °F 87% 29.96 in 10.0 mi North 4.6 mph - 0.00 in Rain Light Rain
1:45 AM 39.2 °F 35.9 °F 35.6 °F 87% 29.97 in 10.0 mi North 4.6 mph - 0.00 in   Overcast
1:53 AM 39.9 °F 36.7 °F 36.0 °F 86% 29.99 in 10.0 mi North 4.6 mph - 0.00 in   Overcast
2:53 AM 39.9 °F 36.7 °F 36.0 °F 86% 30.00 in 10.0 mi North 4.6 mph - N/A   Overcast
3:31 AM 39.2 °F 37.0 °F 35.6 °F 87% 29.99 in 10.0 mi North 3.5 mph - N/A   Overcast
3:45 AM 39.2 °F 37.0 °F 35.6 °F 87% 30.00 in 10.0 mi North 3.5 mph - N/A   Overcast
3:53 AM 39.9 °F 37.8 °F 35.1 °F 83% 30.01 in 10.0 mi North 3.5 mph - N/A   Overcast
4:43 AM 39.2 °F 35.9 °F 35.6 °F 87% 30.01 in 10.0 mi NNW 4.6 mph - N/A   Overcast
4:53 AM 39.9 °F 36.7 °F 35.1 °F 83% 30.03 in 10.0 mi North 4.6 mph - N/A   Overcast
5:53 AM 39.9 °F 35.8 °F 36.0 °F 86% 30.04 in 10.0 mi NNW 5.8 mph - N/A   Overcast
6:38 AM 39.2 °F 37.0 °F 35.6 °F 87% 30.04 in 10.0 mi North 3.5 mph - N/A   Overcast
6:53 AM 41.0 °F - 37.0 °F 86% 30.06 in 10.0 mi Calm Calm - N/A   Overcast
7:53 AM 41.0 °F 39.0 °F 37.0 °F 86% 30.08 in 10.0 mi NNE 3.5 mph - N/A   Overcast
8:33 AM 42.8 °F 41.1 °F 37.4 °F 81% 30.07 in 10.0 mi North 3.5 mph - N/A   Overcast
8:53 AM 43.0 °F 40.3 °F 37.9 °F 82% 30.09 in 10.0 mi North 4.6 mph - N/A   Overcast
9:53 AM 44.6 °F 41.4 °F 39.2 °F 81% 30.09 in 10.0 mi NNE 5.8 mph - N/A   Overcast
10:53 AM 46.0 °F 43.1 °F 41.0 °F 83% 30.11 in 10.0 mi NE 5.8 mph - N/A   Overcast
11:28 AM 46.4 °F 43.5 °F 41.0 °F 81% 30.09 in 10.0 mi NE 5.8 mph - N/A   Overcast
11:43 AM 46.4 °F 42.9 °F 41.0 °F 81% 30.10 in 10.0 mi NW 6.9 mph - N/A   Overcast
11:53 AM 45.0 °F 41.2 °F 41.0 °F 86% 30.11 in 10.0 mi NNW 6.9 mph - N/A   Overcast
12:17 PM 44.6 °F 41.4 °F 41.0 °F 87% 30.09 in 10.0 mi NW 5.8 mph - N/A   Overcast
12:53 PM 46.0 °F 42.5 °F 41.0 °F 83% 30.10 in 10.0 mi NW 6.9 mph - N/A   Overcast
1:05 PM 46.4 °F 44.3 °F 39.2 °F 76% 30.09 in 10.0 mi Variable 4.6 mph - N/A   Overcast
1:53 PM 46.0 °F 43.9 °F 39.9 °F 79% 30.13 in 10.0 mi NNW 4.6 mph - N/A   Overcast
2:26 PM 44.6 °F 41.4 °F 42.8 °F 93% 30.12 in 10.0 mi North 5.8 mph - N/A   Overcast
2:42 PM 44.6 °F - 42.8 °F 93% 30.12 in 10.0 mi Calm Calm - N/A   Overcast
2:53 PM 46.0 °F - 43.0 °F 89% 30.13 in 10.0 mi Calm Calm - N/A   Overcast
3:53 PM 46.0 °F 44.8 °F 42.1 °F 86% 30.14 in 10.0 mi WNW 3.5 mph - N/A   Overcast
4:07 PM 46.4 °F 45.2 °F 42.8 °F 87% 30.12 in 10.0 mi West 3.5 mph - N/A   Overcast
4:53 PM 44.1 °F - 41.0 °F 89% 30.14 in 10.0 mi Calm Calm - N/A   Scattered Clouds
5:02 PM 42.8 °F - 41.0 °F 93% 30.13 in 10.0 mi Calm Calm - N/A   Partly Cloudy
5:30 PM 42.8 °F 41.1 °F 39.2 °F 87% 30.13 in 10.0 mi West 3.5 mph - N/A   Mostly Cloudy
5:53 PM 42.1 °F 40.2 °F 39.9 °F 92% 30.15 in 10.0 mi WSW 3.5 mph - N/A   Mostly Cloudy
6:10 PM 41.0 °F 38.0 °F 39.2 °F 93% 30.13 in 10.0 mi SSW 4.6 mph - N/A   Partly Cloudy
6:26 PM 41.0 °F - 39.2 °F 93% 30.13 in 10.0 mi Calm Calm - N/A   Mostly Cloudy
6:38 PM 37.4 °F - 37.4 °F 100% 30.14 in 10.0 mi Calm Calm - N/A   Overcast
6:53 PM 35.1 °F - 34.0 °F 96% 30.16 in 10.0 mi Calm Calm - N/A   Overcast
7:34 PM 39.2 °F - 37.4 °F 93% 30.15 in 10.0 mi Calm Calm - N/A   Overcast
7:53 PM 41.0 °F 39.0 °F 39.9 °F 96% 30.17 in 10.0 mi SE 3.5 mph - N/A   Overcast
8:53 PM 41.0 °F - 39.9 °F 96% 30.19 in 10.0 mi Calm Calm - N/A   Overcast
9:53 PM 39.2 °F - 37.4 °F 93% 30.17 in 10.0 mi Calm Calm - N/A   Overcast
10:53 PM 39.0 °F 36.8 °F 37.9 °F 96% 30.22 in 10.0 mi Variable 3.5 mph - N/A   Overcast
11:53 PM 37.9 °F 33.5 °F 37.0 °F 97% 30.23 in 10.0 mi NE 5.8 mph - N/A   Overcast